Regional Weather Roundup
Issued by NWS

Home | Current Version | Previous Version | Text Only | Print | Product List | Glossary On
Versions: 1 2 3 4 5 6 7 8 9 10 11 12 13 14 15 16 17 18 19 20 21 22 23 24 25 26 27 28 29 30 31 32 33 34 35 36 37 38 39 40 41 42 43 44 45 46 47 48 49
000
ASUS42 KFFC 292203
RWRGA
WEATHER ROUNDUP FOR GEORGIA
NATIONAL WEATHER SERVICE PEACHTREE CITY GA
500 PM EST THU JAN 29 2015

NOTE: "FAIR" INDICATES FEW OR NO CLOUDS BELOW 12,000 FEET WITH NO
SIGNIFICANT WEATHER AND/OR OBSTRUCTIONS TO VISIBILITY.

* = USE WITH CAUTION. THE STATIONS MARKED WITH AN ASTERISK MAY NOT
REPORT WEATHER SUCH AS PRECIPITATION, FOG, OR THUNDER AND ARE NOT
QUALITY CONTROLLED BY NWS.

THE REMARK "TC" DENOTES TEMPERATURE READING IN DEGREES CELSIUS.

GAZ001>058-292300-
NORTH GEORGIA

CITY           SKY/WX    TMP DP  RH WIND       PRES   REMARKS
ATLANTA        CLOUDY    58  26  29 S10G16    30.11F
ATHENS         PTSUNNY   55  25  31 S6        30.12F
CHAMBLEE       PTSUNNY   57  27  31 S9        30.11S
PEACHTREE CITY CLOUDY    59  30  33 VRB6      30.13F
ROME           PTSUNNY   60  36  40 SW3       30.08R
WEST ATLANTA   PTSUNNY   58  27  30 SW7       30.11S
GAINESVILLE    PTSUNNY   54  27  35 S7        30.12S
CARTERSVILLE   PTSUNNY   59  31  34 S6        30.10F


CITY           SKY/WX    TMP DP  RH WIND       PRES   REMARKS
DALTON*        MOSUNNY   55  34  44 S6        30.09R
LAWRENCEVILLE* PTSUNNY   55  27  33 CALM      30.11F
MARIETTA       PTSUNNY   57  28  32 SW8       30.11S
KENNESAW*      PTSUNNY  N/A N/A N/A SW9       30.12R
$$

GAZ059>098-102>109-292300-
CENTRAL GEORGIA

CITY           SKY/WX    TMP DP  RH WIND       PRES   REMARKS
AUGUSTA-BUSH   MOCLDY    57  24  28 S12       30.17F
AUGUSTA-DANIEL MOCLDY    57  24  28 S12       30.16F
COLUMBUS       MOSUNNY   61  33  35 SW12G20   30.15F
MACON          PTSUNNY   57  32  38 S10G18    30.16F
ROBINS AFB     PTSUNNY   60  30  33 S14       30.16F


CITY           SKY/WX    TMP DP  RH WIND       PRES   REMARKS
LAGRANGE*      MOSUNNY   64  38  37 S8        30.12F
SYLVANIA*      MOCLDY    58  37  45 SW7       30.20F
MILLEDGEVILLE* PTSUNNY   57  34  41 CALM      30.16F
$$

GAZ099>101-110>166-292300-
SOUTH GEORGIA

CITY           SKY/WX    TMP DP  RH WIND       PRES   REMARKS
SAVANNAH       CLOUDY    58  41  53 SE9       30.22S
VALDOSTA       SUNNY     64  32  30 S5        30.22F
ALMA           MOSUNNY   62  35  36 S6        30.21S
ST SIMONS      PTSUNNY   54  45  71 E7        30.23F
FT STEWART     PTSUNNY   61  40  45 SW5       30.20S
ALBANY         MOSUNNY   62  32  32 SW9       30.23S
HUNTER AFB     MOCLDY    56  43  60 S7        30.21F
MOODY AFB      SUNNY     64  29  27 SW9       30.21F
BRUNSWICK      PTSUNNY   61  45  55 SE7       30.24S


CITY           SKY/WX    TMP DP  RH WIND       PRES   REMARKS
BAINBRIDGE*    MOSUNNY   68  41  37 SW8       30.23R
MOULTRIE*      MOSUNNY   63  34  34 S5        30.23S
VIDALIA*       PTSUNNY   59  36  41 SW7       30.21F
WAYCROSS*      MOSUNNY   67  41  39 SW9       30.22S
DOUGLAS*       MOSUNNY   63  30  29 SW9       30.22F
$$



USA.gov is the U.S. government's official web portal to all federal, state and local government web resources and services.